Location: Tumbler Ridge
(55.1167°N, 121.0000°W)
Time: 14:25:06
(UTC-07:00)

Daily predictions for brighter satellites

Satellite Brightness Start Highest point End
(mag) Time Altitude Azimuth Time Altitude Azimuth Time Altitude Azimuth
Cosmos 2278 Rocket 3.4 21:02:20 10° NNW 21:07:26 32° NE 21:12:29 10° E
ATLAS 3B R/B 3.9 21:02:26 10° WNW 21:09:13 42° N 21:15:41 10° ENE
Cosmos 1844 Rocket 3.1 21:06:04 10° NNW 21:11:33 54° NE 21:17:01 10° SE
H-2A R/B 2.9 21:12:18 10° ESE 21:16:41 32° ENE 21:21:02 10° N
SL-08 RB Rocket 4.5 21:14:17 10° SE 21:18:30 38° ENE 21:22:42 10° N
Cosmos 2279 Rocket 4.0 21:13:58 10° S 21:20:12 77° E 21:26:26 10° NNE
Cosmos 1455 4.2 21:17:11 10° SW 21:20:39 33° WNW 21:24:07 10° N
Envisat 3.7 21:15:59 10° S 21:20:59 57° W 21:26:02 10° NNW
Resurs 01 Rocket 4.0 21:18:06 10° SW 21:21:43 24° W 21:25:21 10° NW
YAOGAN 6 2.6 21:20:48 10° SSE 21:24:26 84° W 21:28:03 10° NNW
Helios 1B rocket 2.4 21:20:22 10° NNE 21:24:30 87° E 21:28:37 10° SSW
Cosmos 1939 Rocket 3.6 21:20:46 10° S 21:24:43 54° W 21:28:39 10° NNW
Lacrosse 4 Rocket 3.9 21:22:29 10° WNW 21:25:29 19° WSW 21:28:32 10° SSW
CZ-4C R/B 3.1 21:22:39 10° NW 21:29:11 63° NNE 21:36:39 10° ESE
Abrixas rocket 3.5 21:29:36 10° SW 21:32:21 25° S 21:34:46 12° ESE
Sich 1 Rocket 3.7 21:28:58 10° NNW 21:33:28 86° WSW 21:37:58 10° S
MetOp-A 4.2 21:28:53 10° SSE 21:34:14 80° ENE 21:39:38 10° NNW
USA 234 4.3 21:29:42 10° SSE 21:35:39 37° SW 21:41:38 10° WNW
Cosmos 1908 Rocket 3.6 21:31:42 10° NNW 21:36:04 81° W 21:40:24 10° S
H-2A R/B 3.3 21:34:37 11° ESE 21:38:14 30° ENE 21:42:03 10° N
Cosmos 2219 Rocket 3.8 21:36:25 11° SE 21:39:01 14° E 21:41:53 10° ENE
Terra 3.0 21:36:26 11° ESE 21:40:26 30° ENE 21:44:35 10° N
Meteor 2-10 Rocket 3.8 21:42:13 10° S 21:48:00 72° E 21:53:45 10° NNE
ERS-1 Rocket 3.4 21:43:39 10° S 21:48:38 63° WSW 21:53:38 10° NNW
Cosmos 1782 Rocket 3.5 21:46:01 10° NNW 21:50:25 88° ENE 21:54:49 10° S
Cosmos 2263 Rocket 3.8 21:48:01 10° NW 21:52:45 29° WSW 21:57:28 10° SSW
Blok-L 3.1 21:48:40 10° NW 21:52:46 23° N 21:54:04 13° NE
SeaSat 1 2.6 21:50:41 12° SSE 21:55:19 77° WSW 22:00:18 10° NW
USA 245 4.0 21:52:35 10° SSE 21:58:11 89° ENE 22:02:45 10° NNW
Okean 2 Rocket 3.1 21:55:19 10° N 21:59:53 81° ENE 22:04:00 12° SSE
Molniya-1 4.0 21:58:40 10° WSW 22:00:58 62° NNW 22:04:38 10° NE
Meteor 1-11 Rocket 4.3 21:56:26 10° N 22:01:42 43° ENE 22:05:52 16° SE
Cosmos 1633 3.4 21:58:52 10° N 22:02:18 36° ENE 22:04:33 18° SE
Cosmos 2369 Rocket 4.5 21:59:08 10° NNW 22:02:58 18° NNE 22:06:48 10° ENE
SPOT 1/Viking Rocket 3.6 21:59:25 12° SSE 22:04:12 81° ENE 22:09:27 10° NNW
Cosmos 1898 Rocket 4.3 21:59:26 10° NNW 22:04:20 40° NE 22:08:20 15° ESE
PSLV R/B 4.5 22:04:48 18° ESE 22:06:04 24° ENE 22:08:25 10° N
CENTAUR R/B 3.6 21:59:54 10° W 22:06:23 53° NNW 22:13:48 10° ENE
USA 129 3.5 22:05:40 10° NE 22:06:27 17° ENE 22:06:27 17° ENE
Cosmos 2322 Rocket 2.6 22:03:12 10° SW 22:08:47 67° NW 22:14:27 10° NNE
Cosmos 1777 Rocket 4.4 22:04:40 10° NNW 22:09:55 64° WSW 22:14:35 13° S
MOS 1-B Rocket 4.0 22:06:45 10° SSE 22:12:31 78° WSW 22:18:09 10° NNW
COSMOS 2428 3.2 22:08:02 10° S 22:13:14 38° ESE 22:18:27 10° NE
Cosmos 1992 Rocket 4.5 22:08:01 10° SW 22:13:15 66° WNW 22:18:30 10° NNE
Iridium 4 Rocket 4.2 22:09:41 10° NNE 22:13:18 27° ENE 22:15:27 18° ESE
GENESIS II 4.3 22:09:49 10° SW 22:13:54 89° NW 22:17:59 10° NE
Cosmos 1536 4.2 22:10:44 10° N 22:14:14 27° ENE 22:16:25 17° ESE
Okean 1-7 3.1 22:09:55 10° S 22:14:17 66° E 22:18:41 10° NNE
Meteor 1-25 Rocket 4.4 22:09:20 10° NNW 22:14:56 71° W 22:20:20 11° S
Cosmos 2360 Rocket 2.1 22:11:59 10° SSW 22:17:38 73° ESE 22:23:19 10° NE
NOSS 3-1 (C) 4.5 22:15:44 17° SSE 22:18:41 24° ESE 22:23:42 10° ENE
Cosmos 1980 Rocket 4.1 22:14:02 10° WSW 22:19:12 33° NW 22:24:23 10° NNE
Cosmos 1844 3.8 22:15:13 10° NW 22:20:57 77° WSW 22:25:11 18° SSE
Cosmos 1606 3.2 22:20:41 22° SSE 22:22:43 41° E 22:26:18 10° NNE
USA 229 DEB 3.9 22:16:31 10° SSW 22:23:05 50° SE 22:29:48 10° NE
USA 229 3.9 22:16:39 10° SSW 22:23:11 50° SE 22:29:54 10° NE
SPOT 5 3.4 22:20:33 10° S 22:25:09 53° W 22:29:38 10° NNW
ATLAS 5 CENTAUR R/B 4.1 22:24:29 10° WNW 22:29:00 23° WSW 22:33:47 10° SSW
Cosmos 1703 Rocket 3.9 22:26:18 10° SSW 22:30:43 66° WNW 22:35:08 10° N
Cosmos 2322 3.6 22:25:04 10° SSW 22:30:47 78° ESE 22:36:31 10° NE
Cosmos 2084 3.3 22:27:17 10° NW 22:31:03 62° SW 22:33:06 26° SSE
CZ-4C R/B 4.3 22:29:53 21° ESE 22:31:39 31° ENE 22:34:53 10° N
ASTEX 1 3.6 22:28:45 21° SSE 22:32:04 60° ENE 22:36:59 10° N
Nimbus 7 Rocket 4.4 22:27:34 10° NNE 22:33:31 70° ESE 22:39:28 10° S
Cosmos 2151 Rocket 3.5 22:29:22 10° NNW 22:33:49 88° ENE 22:36:45 21° SSE
SWAS 4.4 22:30:28 10° NW 22:34:51 87° WSW 22:37:19 25° SSE
Cosmos 1745 Rocket 4.2 22:30:31 10° N 22:36:49 64° ENE 22:41:10 21° SSE
SL-16 R/B 3.3 22:32:50 10° WSW 22:38:20 48° NW 22:43:51 10° NNE
USA 267 3.3 22:33:11 10° ENE 22:39:47 85° NNW 22:46:21 10° WSW
ARGOS 4.0 22:38:15 10° S 22:43:20 44° W 22:48:30 10° NNW
CARTOSAT-1 3.5 22:43:26 25° SSE 22:45:58 89° ENE 22:50:19 10° NNW
Cosmos 2221 Rocket 4.1 22:42:28 10° SSW 22:46:51 61° WNW 22:51:17 10° N
Meteor 2-6 Rocket 4.3 22:45:14 16° S 22:50:05 71° E 22:56:01 10° NNE
Cosmos 2278 Rocket 2.2 22:46:25 10° NW 22:52:06 78° WSW 22:55:31 25° SSE
Cosmos 2333 4.3 22:47:13 10° SSW 22:52:51 61° ESE 22:58:34 10° NE
CRYOSAT 2 4.4 22:50:18 26° SSE 22:53:02 66° E 22:57:54 10° N
Cosmos 2333 Rocket 2.8 22:50:21 23° SSE 22:53:08 37° ESE 22:58:24 10° NE
Okean 1 Rocket 3.2 22:49:46 10° N 22:54:11 60° ENE 22:56:16 30° SE
Cosmos 2237 Rocket 3.1 22:52:56 24° SE 22:54:50 30° ESE 22:59:42 10° NE
DMSP B5D2-2 4.1 22:49:52 10° NNE 22:55:07 62° ESE 22:58:31 22° S
Cosmos 1844 Rocket 3.7 22:50:13 10° NW 22:55:20 38° WSW 22:59:11 17° S
H-2A R/B 2.6 22:52:15 16° S 22:56:00 50° W 23:00:48 10° NNW
Cosmos 1782 2.9 22:53:17 18° SSW 22:56:13 77° WNW 23:00:16 10° N
DELTA 2 DEB (DPAF) 4.3 22:55:21 29° SE 22:57:35 66° ENE 23:02:03 10° NNW
CZ-4B R/B 4.0 22:53:23 10° NNE 22:57:49 37° E 22:59:32 28° SE
Cosmos 2298 Rocket 4.1 22:53:09 10° NNW 22:58:32 77° ENE 23:01:28 27° SE
ATLAS 3B R/B 3.2 22:54:09 10° NW 23:01:09 59° NNE 23:07:12 13° ESE
Landsat 7 4.4 22:59:42 20° S 23:02:53 51° W 23:07:33 10° NNW
Cosmos 1674 Rocket 3.7 23:02:25 32° SSE 23:04:10 55° E 23:08:25 10° NNE
Aureole 2 Rocket 4.1 23:06:09 16° ENE 23:06:09 16° ENE 23:07:02 10° NE
Abrixas rocket 4.1 23:06:00 10° WSW 23:07:26 18° SW 23:07:26 18° SW
Meteor 1-5 Rocket 4.2 23:04:59 10° NNW 23:10:36 75° ENE 23:13:41 29° SSE
Cosmos 2292 Rocket 3.0 23:07:39 10° N 23:10:41 47° ENE 23:11:02 45° E
IGS 5A 3.8 23:09:30 27° S 23:11:33 58° WSW 23:15:41 10° NNW
Cosmos 1602 4.3 23:09:57 10° NNW 23:13:43 51° W 23:15:26 28° SSW
Cosmos 1346 Rocket 2.7 23:12:23 36° S 23:13:53 72° ESE 23:17:53 10° NNE
H-2A R/B 2.8 23:11:43 23° SSW 23:14:06 45° W 23:18:21 10° NNW
Cosmos 1570 Rocket 4.0 23:13:20 22° S 23:16:42 69° ESE 23:21:59 10° NNE
NOSS 0 Rocket 4.2 23:14:35 26° S 23:17:47 48° ESE 23:23:39 10° NE
CZ-4C R/B 3.1 23:11:15 10° NW 23:17:57 57° SW 23:22:17 26° SSE
Terra 2.4 23:15:18 24° SSW 23:18:00 52° W 23:22:41 10° NNW
USA 238 DEB 4.2 23:13:37 10° NW 23:20:36 60° NNE 23:27:20 11° ESE
USA 238 4.2 23:13:42 10° NW 23:20:42 60° NNE 23:27:28 11° ESE
Cosmos 2219 Rocket 2.1 23:18:04 20° SSW 23:21:56 66° ESE 23:27:33 10° NE
ALOS 2 3.8 23:21:18 23° ESE 23:23:08 33° ENE 23:27:05 10° N
Cosmos 1937 Rocket 3.5 23:19:23 10° NNW 23:24:42 83° WSW 23:27:04 34° SSE
Cosmos 2208 Rocket 4.0 23:21:27 23° SSW 23:24:48 72° ESE 23:30:05 10° NNE
Cosmos 1553 Rocket 4.0 23:21:51 21° S 23:26:19 87° WNW 23:32:32 10° N
MINOTAUR R/B 4.4 23:23:40 10° NW 23:26:35 70° WSW 23:26:37 70° SW
Cosmos 1975 Rocket 3.9 23:26:20 31° ESE 23:27:20 35° E 23:31:24 10° NNE
Cosmos 1975 4.0 23:23:58 10° N 23:27:35 31° ENE 23:28:43 27° E
Spot 4 3.9 23:26:02 32° S 23:28:13 70° WSW 23:33:01 10° NNW
Meteor 1-27 Rocket 3.7 23:24:40 24° SSW 23:28:15 89° ESE 23:33:52 10° NNE
Cosmos 2315 Rocket 4.5 23:26:17 28° SE 23:28:59 44° E 23:34:51 10° NNE
Cosmos 1300 Rocket 4.2 23:28:28 10° NNW 23:32:40 48° W 23:34:36 28° SSW
Cosmos 2150 Rocket 4.2 23:28:01 10° NNW 23:33:27 71° WSW 23:35:54 33° S
CZ-4 R/B 3.8 23:29:37 10° NNE 23:34:25 82° ESE 23:36:43 32° S
Cosmos 990 Rocket 3.9 23:31:29 10° NNW 23:36:40 80° WSW 23:38:45 37° SSE
Cosmos 1633 4.5 23:34:09 10° NW 23:37:09 24° W 23:38:51 17° SW
Cosmos 1812 3.7 23:37:29 30° E 23:37:46 31° E 23:41:13 10° NNE
Cosmos 1743 4.3 23:40:22 10° N 23:43:32 24° ENE 23:44:33 21° E
Cosmos 2297 3.8 23:40:17 10° NW 23:45:59 67° WSW 23:48:23 35° S
Cosmos 1898 Rocket 4.1 23:41:36 10° NW 23:46:31 45° WSW 23:48:37 30° SSW
Cosmos 2369 Rocket 3.3 23:43:19 10° NNW 23:48:35 39° NE 23:52:45 16° ESE
Cosmos 1536 3.8 23:47:01 10° NNW 23:50:50 40° W 23:52:10 30° SW
Iridium 4 Rocket 4.0 23:49:32 10° NNW 23:53:26 38° W 23:55:15 25° SW
Cosmos 2184 Rocket 4.4 23:47:27 10° N 23:53:42 54° ENE 23:56:50 29° SE
CZ-2C R/B 3.2 23:52:07 35° SE 23:53:59 57° ENE 23:58:53 10° N
